This is the latest recevied weather packets stored in our database for station/object AB8Y-13. If no packets are shown the sender has not sent any weather packets the latest 10 day(s).
| Time | Temp. | Humidity | Pressure | Rain* | Wind** | Luminosity | Snow |
|---|---|---|---|---|---|---|---|
| 1777143391 | 9.44° C | 81% | 1016 hPa | 0 mm | - | 267 W/m² | - |
| 1777143086 | 9.44° C | 83% | 1016 hPa | 0 mm | - | 269 W/m² | - |
| 1777142782 | 8.89° C | 84% | 1016.1 hPa | 0 mm | - | 278 W/m² | - |
| 1777142479 | 8.89° C | 82% | 1015.9 hPa | 0 mm | - | 256 W/m² | - |
| 1777142178 | 8.89° C | 82% | 1016 hPa | 0 mm | - | 274 W/m² | - |
| 1777141875 | 8.89° C | 83% | 1015.8 hPa | 0 mm | - | 314 W/m² | - |
| 1777141572 | 8.89° C | 84% | 1015.6 hPa | 0 mm | - | 280 W/m² | - |
| 1777141271 | 8.89° C | 84% | 1015.7 hPa | 0 mm | - | 254 W/m² | - |
| 1777140967 | 8.89° C | 82% | 1015.4 hPa | 0 mm | - | 259 W/m² | - |
| 1777140664 | 9.44° C | 83% | 1015.7 hPa | 0 mm | - | 281 W/m² | - |
| 1777140360 | 9.44° C | 81% | 1015.5 hPa | 0 mm | - | 311 W/m² | - |
| 1777140058 | 9.44° C | 83% | 1015.2 hPa | 0 mm | - | 387 W/m² | - |
| 1777139755 | 9.44° C | 84% | 1015.4 hPa | 0 mm | - | 350 W/m² | - |
| 1777139451 | 8.89° C | 83% | 1015.8 hPa | 0 mm | - | 484 W/m² | - |
| 1777139147 | 8.89° C | 87% | 1015.6 hPa | 0 mm | - | 298 W/m² | - |
| 1777138844 | 8.89° C | 84% | 1015.5 hPa | 0 mm | - | 279 W/m² | - |
| 1777138539 | 8.89° C | 85% | 1015.8 hPa | 0 mm | - | 261 W/m² | - |
| 1777138236 | 8.89° C | 86% | 1015.7 hPa | 0 mm | - | 269 W/m² | - |
| 1777137932 | 8.33° C | 87% | 1015.7 hPa | 0 mm | - | 254 W/m² | - |
| 1777137628 | 8.33° C | 88% | 1016 hPa | 0 mm | - | 200 W/m² | - |
| 1777137326 | 8.33° C | 88% | 1016 hPa | 0 mm | - | 167 W/m² | - |
| 1777137022 | 8.33° C | 89% | 1016.1 hPa | 0 mm | - | 180 W/m² | - |
| 1777136718 | 8.33° C | 89% | 1016 hPa | 0 mm | - | 191 W/m² | - |
| 1777136416 | 8.33° C | 89% | 1016 hPa | 0 mm | - | 185 W/m² | - |
| 1777136114 | 8.33° C | 88% | 1016.1 hPa | 0 mm | - | 161 W/m² | - |
* Rain latest hour (hover to see other rain measurements)
** Current wind speed in m/s (hover to see current wind gust speed)